Overview Statistics Trail Chart Weather Telemetry Raw packets
 

This is the latest recevied weather packets stored in our database for station/object HP1MRA-15. If no packets are shown the sender has not sent any weather packets the latest 10 day(s).

<< 60 61 62 63 64 65 66 >>
Time Temp. Humidity Pressure Rain* Wind** Luminosity Snow
1788284819 37.78° C 70% 1003.8 hPa 0 mm - - -
1788284519 37.78° C 69% 1003.8 hPa 0 mm - - -
1788284220 37.78° C 66% 1003.9 hPa 0 mm - - -
1788283919 38.33° C 73% 1004 hPa 0 mm - - -
1788283620 38.33° C 74% 1004.1 hPa 0 mm - - -
1788283319 38.33° C 74% 1004.1 hPa 0 mm - - -
1788283020 38.33° C 75% 1004.2 hPa 0 mm - - -
1788283018 38.33° C 74% 1004.2 hPa 0 mm - - -
1788282720 38.33° C 74% 1004.3 hPa 0 mm - - -
1788282419 38.33° C 74% 1004.5 hPa 0 mm - - -
1788282120 38.33° C 71% 1004.7 hPa 0 mm - - -
1788282118 38.89° C 70% 1004.6 hPa 0 mm - - -
1788281819 38.89° C 71% 1004.7 hPa 0 mm - - -
1788281519 37.78° C 74% 1004.8 hPa 0 mm - - -
1788281218 37.78° C 74% 1004.9 hPa 0 mm - - -
1788280919 37.22° C 75% 1005 hPa 0 mm - - -
1788280620 36.67° C 76% 1005.1 hPa 0 mm - - -
1788280317 36.11° C 76% 1005.2 hPa 0 mm - - -
1788280019 36.11° C 76% 1005.2 hPa 0 mm - - -
1788279719 36.11° C 77% 1005.3 hPa 0 mm - - -
1788279420 36.11° C 77% 1005.4 hPa 0 mm - - -
1788279418 36.11° C 77% 1005.4 hPa 0 mm - - -
1788279119 35.56° C 77% 1005.3 hPa 0 mm - - -
1788278827 35.56° C 77% 1005.3 hPa 0 mm - - -
1788278518 35.56° C 77% 1005.3 hPa 0 mm - - -

* Rain latest hour (hover to see other rain measurements)
** Current wind speed in m/s (hover to see current wind gust speed)